Tracking 30009 objects as of 7-Dec-2024
HD Live streaming from Space Station
objects crossing your sky now

STARLINK-30423

Track STARLINK-30423 now!
10-day predictions
STARLINK-30423 is classified as:


NORAD ID: 57843
Int'l Code: 2023-141D
Perigee: 481.0 km
Apogee: 483.7 km
Inclination: 53.2 °
Period: 94.1 minutes
Semi major axis: 6853 km
RCS: Unknown
Launch date: September 12, 2023
Source: United States (US)
Launch site: AIR FORCE WESTERN TEST RANGE (AFWTR)
Your satellite tracking list
Your tracking list is empty




NASA's NSSDC Master Catalog

Two Line Element Set (TLE):
1 57843U 23141D   24342.02289729 -.00000045  00000-0  10611-4 0  9995
2 57843  53.1607 249.9826 0002003  96.8461 263.2768 15.30197731 70255
Source of the keplerian elements: AFSPC